This demonstration page uses our WeatherBlox Daily Observations layout. Learn more.

Left ArrowRight Arrow

39.51506, -84.39828

Hourly Observations for February 23, 2016

Temp ( °F °C ) Dew Point ( °F °C ) Humidity (%) Winds ( mph kmh ) Pressure ( in mb ) Visibility ( mi km ) Precip ( " mm )
12:15 am 00:15 Clear 37 2.6 29 -1.5 75 75 NNE 6 9 30.12 1020 10 16 0.00 0.00
12:35 am 00:35 Clear 37 2.6 30 -1.2 76 76 NNE 7 11 30.09 1019 10 16 0.00 0.00
12:55 am 00:55 Clear 37 2.6 30 -1.3 76 76 NNE 9 15 30.09 1019 10 16 0.00 0.00
1:15 am 01:15 Clear 35 1.4 28 -2.2 77 77 NNE 8 13 30.09 1019 10 16 0.00 0.00
1:35 am 01:35 Clear 34 1.2 27 -2.6 76 76 NNE 8 13 30.09 1019 10 16 0.00 0.00
1:55 am 01:55 Clear 34 1.2 28 -2.4 77 77 NNE 8 13 30.09 1019 10 16 0.00 0.00
2:15 am 02:15 Clear 34 1.2 28 -2.3 78 78 NNE 8 13 30.09 1019 10 16 0.00 0.00
2:35 am 02:35 Clear 34 1.2 28 -2 79 79 NNE 7 11 30.09 1019 10 16 0.00 0.00
2:55 am 02:55 Clear 34 1.2 28 -2 79 79 NNE 6 9 30.09 1019 10 16 0.00 0.00
3:15 am 03:15 Clear 34 1.2 28 -2 79 79 N 7 11 30.09 1019 10 16 0.00 0.00
3:35 am 03:35 Clear 34 1.2 28 -2.3 78 78 NNE 7 11 30.09 1019 10 16 0.00 0.00
3:55 am 03:55 Clear 34 1 28 -2.4 78 78 NNE 7 11 30.09 1019 10 16 0.00 0.00
4:15 am 04:15 Clear 32 0 26 -3.6 77 77 NNE 7 11 30.06 1018 10 16 0.00 0.00
4:35 am 04:35 Clear 32 0 26 -3.6 77 77 NNE 7 11 30.06 1018 10 16 0.00 0.00
4:55 am 04:55 Clear 32 0 25 -3.7 76 76 NNE 8 13 30.06 1018 10 16 0.00 0.00
5:15 am 05:15 Clear 32 0.2 26 -3.6 76 76 NNE 8 13 30.06 1018 10 16 0.00 0.00
5:35 am 05:35 Clear 32 0 25 -4.1 74 74 NNE 7 11 30.09 1019 10 16 0.00 0.00
5:55 am 05:55 Clear 32 0 24 -4.2 74 74 NNE 7 11 30.09 1019 10 16 0.00 0.00
6:15 am 06:15 Clear 32 0 24 -4.3 73 73 NNE 6 9 30.09 1019 10 16 0.00 0.00
6:35 am 06:35 Clear 32 0 24 -4.4 73 73 NNE 7 11 30.06 1018 10 16 0.00 0.00
6:55 am 06:55 Clear 32 0 24 -4.5 72 72 NNE 7 11 30.06 1018 10 16 0.00 0.00
7:15 am 07:15 Clear 32 0 24 -4.5 72 72 NNE 7 11 30.06 1018 10 16 0.00 0.00
7:35 am 07:35 Sunny 32 0.1 24 -4.6 71 71 NNE 7 11 30.06 1018 10 16 0.00 0.00
7:55 am 07:55 Sunny 34 1.2 25 -3.7 70 70 NNE 8 13 30.06 1018 10 16 0.00 0.00
8:15 am 08:15 Sunny 34 1.2 24 -4.5 66 66 NE 6 9 30.06 1018 10 16 0.00 0.00
8:35 am 08:35 Sunny 36 2.4 25 -3.9 63 63 N 6 9 30.06 1018 10 16 0.00 0.00
8:55 am 08:55 Sunny 37 2.6 24 -4.4 60 60 NNE 8 13 30.09 1019 10 16 0.00 0.00
9:15 am 09:15 Sunny 39 4 26 -3.6 58 58 NE 8 13 30.09 1019 10 16 0.00 0.00
9:35 am 09:35 Sunny 39 4 25 -4.1 56 56 NE 9 15 30.09 1019 10 16 0.00 0.00
9:55 am 09:55 Sunny 40 4.7 25 -4 54 54 NE 10 17 30.06 1018 10 16 0.00 0.00
10:15 am 10:15 Sunny 42 5.5 25 -3.9 51 51 NE 10 17 30.06 1018 10 16 0.00 0.00
10:35 am 10:35 Sunny 43 6.1 25 -3.8 49 49 NE 10 17 30.06 1018 10 16 0.00 0.00
10:55 am 10:55 Sunny 46 7.6 27 -2.8 48 48 NNE 8 13 30.06 1018 10 16 0.00 0.00
11:15 am 11:15 Sunny 47 8.2 27 -2.7 46 46 NNE 9 15 30.06 1018 10 16 0.00 0.00
11:35 am 11:35 Sunny 49 9.6 29 -1.7 46 46 NE 12 19 30.03 1017 10 16 0.00 0.00
11:55 am 11:55 Sunny 49 9.6 29 -1.9 45 45 ENE 13 20 30.00 1016 10 16 0.00 0.00
12:15 pm 12:15 Sunny 51 10.3 30 -1.3 45 45 NE 12 19 30.00 1016 10 16 0.00 0.00
12:35 pm 12:35 Sunny 55 12.5 32 0.2 43 43 NE 10 17 29.97 1015 10 16 0.00 0.00
12:55 pm 12:55 Sunny 55 12.5 33 0.6 44 44 NE 12 19 29.97 1015 10 16 0.00 0.00
1:15 pm 13:15 Sunny 55 12.5 33 0.8 45 45 NE 10 17 29.97 1015 10 16 0.00 0.00
1:35 pm 13:35 Sunny 55 12.5 34 1 46 46 ENE 10 17 29.97 1015 10 16 0.00 0.00
1:55 pm 13:55 Sunny 56 13.4 35 1.9 46 46 NE 10 17 29.94 1014 10 16 0.00 0.00
2:15 pm 14:15 Sunny 57 13.8 36 2 45 45 NE 9 15 29.94 1014 10 16 0.00 0.00
2:35 pm 14:35 Sunny 57 13.8 36 2.1 45 45 ENE 10 17 29.94 1014 10 16 0.00 0.00
2:55 pm 14:55 Sunny 57 13.8 35 1.9 45 45 NE 10 17 29.94 1014 10 16 0.00 0.00
3:15 pm 15:15 Sunny 57 13.8 36 2 45 45 NE 10 17 29.94 1014 10 16 0.00 0.00
3:35 pm 15:35 Sunny 57 13.8 36 2.1 45 45 NE 10 17 29.94 1014 10 16 0.00 0.00
3:55 pm 15:55 Sunny 57 13.8 36 2.3 46 46 ENE 13 20 29.91 1013 10 16 0.00 0.00
4:15 pm 16:15 Sunny 57 13.8 36 2.3 46 46 ENE 10 17 29.91 1013 10 16 0.00 0.00
4:35 pm 16:35 Sunny 57 13.8 37 2.5 47 47 ENE 9 15 29.91 1013 10 16 0.00 0.00
4:55 pm 16:55 Sunny 57 13.8 37 3 48 48 ENE 9 15 29.91 1013 10 16 0.00 0.00
5:15 pm 17:15 Sunny 57 13.8 38 3.2 49 49 ENE 13 20 29.91 1013 10 16 0.00 0.00
5:35 pm 17:35 Sunny 55 12.5 37 2.6 51 51 ENE 8 13 29.91 1013 10 16 0.00 0.00
5:55 pm 17:55 Partly Cloudy 55 12.5 37 2.7 52 52 NE 10 17 29.88 1012 10 16 0.00 0.00
6:15 pm 18:15 Mostly Cloudy 55 12.5 37 2.8 52 52 NE 9 15 29.88 1012 10 16 0.00 0.00
6:35 pm 18:35 Cloudy 55 12.5 36 2.4 50 50 NE 8 13 29.88 1012 10 16 0.00 0.00
6:55 pm 18:55 Cloudy 55 12.5 37 2.5 51 51 NNE 9 15 29.88 1012 10 16 0.00 0.00
7:15 pm 19:15 Cloudy 55 12.5 37 2.5 51 51 NE 10 17 29.88 1012 10 16 0.00 0.00
7:35 pm 19:35 Cloudy 55 12.5 37 2.8 52 52 NE 10 17 29.88 1012 10 16 0.00 0.00
7:55 pm 19:55 Cloudy 52 11 35 1.7 53 53 NE 10 17 29.88 1012 10 16 0.00 0.00
8:15 pm 20:15 Mostly Cloudy 50 10 34 1.2 55 55 NNE 15 24 29.88 1012 10 16 0.00 0.00
8:35 pm 20:35 Mostly Cloudy 49 9.6 35 1.5 57 57 NNE 15 24 29.85 1011 10 16 0.00 0.00
8:55 pm 20:55 Cloudy 49 9.6 35 1.5 57 57 NNE 13 20 29.85 1011 10 16 0.00 0.00
9:15 pm 21:15 Mostly Cloudy 49 9.6 36 2 59 59 NNE 14 22 29.85 1011 10 16 0.00 0.00
9:35 pm 21:35 Cloudy 49 9.6 36 2.1 60 60 NE 12 19 29.85 1011 10 16 0.00 0.00
9:55 pm 21:55 Cloudy 47 8.2 34 1.1 61 61 NNE 10 17 29.85 1011 10 16 0.00 0.00
10:15 pm 22:15 Cloudy 47 8.2 34 1.1 61 61 NNE 13 20 29.85 1011 10 16 0.00 0.00
10:35 pm 22:35 Cloudy 46 7.7 33 0.8 62 62 NNE 9 15 29.83 1010 10 16 0.00 0.00
10:55 pm 22:55 Cloudy 44 6.8 32 0.2 63 63 NE 14 22 29.80 1009 10 16 0.00 0.00
11:15 pm 23:15 Cloudy 44 6.8 33 0.3 64 64 NE 15 24 29.80 1009 10 16 0.00 0.00
11:35 pm 23:35 Cloudy 44 6.5 32 0.2 64 64 NE 13 20 29.80 1009 10 16 0.00 0.00
11:55 pm 23:55 Cloudy 44 6.5 32 0.2 64 64 NE 15 24 29.77 1008 10 16 0.00 0.00

Powered by AerisWeather